User: anonymous   Login
Location: Caltech
(34.1382°N, 118.1253°W)
Time: 16:34:13
(UTC-07:00)
Language:

Lacrosse 5 rocket - Orbit

View from above orbital plane
View from above orbital plane
View from above satellite
View from above satellite

Ground track
Ground track

The orbit data is extracted from the following two-line orbital elements,

1 28647U 05016B   16091.87159180 0.00001100  00000-0  67671-4 0    01
2 28647  56.9940  10.4477 0114921 256.9754 103.0246 15.04169952    09
Epoch (UTC): 31 March 2016 20:55:05
Eccentricity: 0.0114921
inclination: 56.9940°
perigee height: 474 km
apogee height: 634 km
right ascension of ascending node: 10.4477°
argument of perigee: 256.9754°
revolutions per day: 15.04169952
mean anomaly at epoch: 103.0246°
orbit number at epoch: 0

The dashed part of the orbit path shows where the satellite is in the earth's shadow,  

DLR